Location: Koslow
(50.3020°N, 18.5663°E)
Time: 13:46:14
(UTC+00:00)

X-37B - Pass Details

Date: 06 August 2021
Orbit: 381 x 393 km, 45.0° (Epoch: 29 August)

Event Time Altitude Azimuth Distance (km) Brightness Sun altitude
Exits shadow 01:56:52 19° 206° (SSW) 974 2.0 -11.7°
Maximum altitude 01:58:09 26° 168° (SSE) 801 1.9 -11.5°
Drops below altitude 10° 02:00:50 10° 110° (ESE) 1,398 3.7 -11.2°
Sets 02:03:05 0° 97° (E) 2,253 5.1 -11.0°
